Regional Weather Roundup
Issued by NWS

Home | Current Version | Previous Version | Graphics & Text | Print | Product List | Glossary On
Versions: 1 2 3 4 5 6 7 8 9 10 11 12 13 14 15 16 17 18 19 20 21 22 23 24 25 26 27 28 29 30 31 32 33 34 35 36 37 38 39 40 41 42 43 44 45 46 47 48 49 50
649
ASUS44 KJAN 261910
RWRMS

MISSISSIPPI HOURLY WEATHER ROUNDUP
NATIONAL WEATHER SERVICE JACKSON MS
100 PM CST THU FEB 26 2015

NOTE: "FAIR: INDICATES FEW OR NO CLOUDS BELOW 12,000 FEET WITH NO
SIGNIFICANT WEATHER AND/OR OBSTRUCTIONS TO VISIBILITY.

MSZ001>002-007>008-010>013-018>021-025>028-034>036-262000-
NORTHWEST MISSISSIPPI

CITY           SKY/WX    TMP DP  RH WIND       PRES   REMARKS
CLARKSDALE     CLOUDY    32  32 100 NW10      30.19S WCI  24
CLEVELAND      CLOUDY    33  32  95 N10       30.19R WCI  25
GREENWOOD        N/A    N/A N/A N/A MISG      30.18R
GREENVILLE     CLOUDY    34  30  85 N15       30.19R FOG     WCI  24
OLIVE BRANCH   PTSUNNY   37  34  87 N12G18    30.14R WCI  30
OXFORD         CLOUDY    32  28  86 NW13G20   30.16S WCI  22
TUNICA         MOCLDY    34  34 100 NW14G20   30.19S WCI  24
$$

MSZ003>006-009-014>017-022>024-029>033-037>039-262000-
NORTHEAST MISSISSIPPI

CITY           SKY/WX    TMP DP  RH WIND       PRES   REMARKS
COLUMBUS AFB   CLOUDY    35  29  81 NW10      30.12S WCI  27
CORINTH        MOCLDY    45  30  57 NW5G13    30.09R
GOLDN TRIANGLE PTSUNNY   37  30  75 NW7       30.12R WCI  32
STARKVILLE     CLOUDY    36  32  87 NW6       30.12S WCI  31
TUPELO         PTSUNNY   40  30  67 VRB6      30.12R
$$

MSZ040-058-262000-
CENTRAL MISSISSIPPI

CITY           SKY/WX    TMP DP  RH WIND       PRES   REMARKS
JACKSON INTL   MOSUNNY   46  32  58 N12       30.11F
JACKSON HAWKNS MOSUNNY   45  31  58 N10       30.12F
MERIDIAN KEY   PTSUNNY   45  29  53 NW17      30.09F
MERIDIAN NAS   MOSUNNY   46  28  49 N13G20    30.09S
VICKSBURG      PTSUNNY   40  32  73 NW7       30.18R
$$

MSZ059>079-262000-
SOUTH MISSISSIPPI

CITY           SKY/WX    TMP DP  RH WIND       PRES   REMARKS
BROOKHAVEN     FAIR      45  34  65 N10       30.11F
HATTIESBURG    CLOUDY    42  33  70 N12       30.10F
MCCOMB         MOSUNNY   45  30  55 N12       30.09F
NATCHEZ        MOSUNNY   43  34  70 N10G17    30.14S
PINE BELT      PTSUNNY   45  34  65 N10G16    30.10S
$$

MSZ080>082-262000-
COASTAL MISSISSIPPI

CITY           SKY/WX    TMP DP  RH WIND       PRES   REMARKS
BAY ST LOUIS   CLOUDY    45  34  65 N16       30.07F
BILOXI         CLOUDY    46  36  67 N16       30.05S
PASCAGOULA     CLOUDY    49  37  63 N16G24    30.03F
GULFPORT       CLOUDY    45  35  68 N16       30.06S
$$



USA.gov is the U.S. government's official web portal to all federal, state and local government web resources and services.